Location: Pedimozza
(42.0500°N, 9.3500°E)
Time: 01:28:23
(UTC+00:00)

USA 215 - Pass Details

Date: 19 August 2019
Orbit: 1102 x 1106 km, 123.0° (Epoch: 14 September)

Event Time Altitude Azimuth Distance (km) Brightness Sun altitude
Rises 23:07:17 0° 49° (NE) 3,924 6.6 -35.2°
Reaches altitude 10° 23:09:48 10° 53° (NE) 2,963 5.8 -35.2°
Enters shadow 23:13:31 36° 67° (ENE) 1,683 4.2 -35.3°
